Location: Millers Ferry
(32.0990°N, 87.3680°W)
Time: 11:45:18
(UTC-05:00)

CSL-04 Rocket - Visible Passes

Search period start: 21 October 2014 00:00
Search period end: 31 October 2014 00:00
Orbit: 807 x 860 km, 98.9° (Epoch: 20 October)

Date Brightness Start Highest point End Pass type
(mag) Time Alt. Az. Time Alt. Az. Time Alt. Az.
21 Oct 5.0 04:38:28 10° NNE 04:43:38 39° E 04:48:45 10° SSE visible
21 Oct 4.8 06:19:25 10° NNW 06:23:38 23° WNW 06:27:52 10° WSW visible
22 Oct 5.7 04:22:11 10° NE 04:26:48 27° E 04:31:23 10° SSE visible
22 Oct 4.4 06:02:09 10° N 06:07:02 33° WNW 06:11:54 10° SW visible
23 Oct 6.2 04:06:12 10° NE 04:09:55 18° E 04:13:37 10° SE visible
23 Oct 3.9 05:45:06 10° N 05:50:23 47° WNW 05:55:40 10° SW visible
24 Oct 6.6 03:51:03 10° ENE 03:53:00 12° E 03:54:57 10° ESE visible
24 Oct 3.6 05:28:11 10° N 05:33:42 69° WNW 05:39:11 10° SSW visible
25 Oct 3.7 05:11:24 10° NNE 05:16:59 83° ESE 05:22:31 10° SSW visible
26 Oct 4.3 04:54:45 10° NNE 05:00:13 56° E 05:05:38 10° S visible
26 Oct 5.2 06:36:43 10° NNW 06:40:00 16° WNW 06:43:17 10° WSW visible
27 Oct 5.0 04:38:16 10° NNE 04:43:25 38° E 04:48:31 10° SSE visible
27 Oct 4.8 06:19:10 10° NNW 06:23:26 23° WNW 06:27:41 10° WSW visible
28 Oct 5.7 04:21:59 10° NE 04:26:34 26° E 04:31:07 10° SSE visible
28 Oct 4.3 06:01:55 10° N 06:06:49 33° WNW 06:11:42 10° SW visible
29 Oct 6.2 04:06:02 10° NE 04:09:42 18° E 04:13:20 10° SE visible
29 Oct 3.9 05:44:52 10° N 05:50:11 48° WNW 05:55:27 10° SW visible
30 Oct 6.6 03:50:57 10° ENE 03:52:46 12° E 03:54:36 10° ESE visible
30 Oct 3.6 05:27:58 10° N 05:33:29 70° WNW 05:38:58 10° SSW visible
